Time,TemperatureF,DewpointF,PressureIn,WindDirection,WindDirectionDegrees,WindSpeedMPH,WindSpeedGustMPH,Humidity,HourlyPrecipIn,Conditions,Clouds,dailyrainin,SolarRadiationWatts/m^2,SoftwareType,DateUTC
2013-02-25 00:00:00,18.9,12.0,30.19,North,-999,0.0,0.0,74,0.00,,,-99.99,0,WeatherLink 5.7,2013-02-25 07:00:00,
2013-02-25 00:10:00,18.5,11.9,30.20,North,-999,0.0,0.0,75,0.00,,,-99.99,0,WeatherLink 5.7,2013-02-25 07:10:00,
2013-02-25 00:15:00,18.3,11.7,30.20,North,-999,0.0,0.0,75,0.00,,,-99.99,0,WeatherLink 5.7,2013-02-25 07:15:00,
2013-02-25 00:25:00,17.8,11.5,30.20,North,-999,0.0,0.0,76,0.00,,,-99.99,0,WeatherLink 5.7,2013-02-25 07:25:00,
2013-02-25 00:30:00,17.8,11.5,30.20,NW,315,0.0,1.0,76,0.00,,,-99.99,0,WeatherLink 5.7,2013-02-25 07:30:00,
2013-02-25 00:40:00,17.7,11.4,30.20,North,-999,0.0,0.0,76,0.00,,,-99.99,0,WeatherLink 5.7,2013-02-25 07:40:00,
2013-02-25 00:45:00,17.5,11.2,30.20,NW,315,1.0,4.0,76,0.00,,,-99.99,0,WeatherLink 5.7,2013-02-25 07:45:00,
2013-02-25 00:55:00,17.2,10.9,30.23,NW,315,1.0,3.0,76,0.00,,,-99.99,0,WeatherLink 5.7,2013-02-25 07:55:00,
2013-02-25 01:00:00,17.2,10.9,30.23,NW,315,0.0,1.0,76,0.00,,,-99.99,0,WeatherLink 5.7,2013-02-25 08:00:00,
2013-02-25 01:10:00,16.9,10.6,30.23,North,-999,0.0,0.0,76,0.00,,,-99.99,0,WeatherLink 5.7,2013-02-25 08:10:00,
2013-02-25 01:15:00,16.6,10.3,30.23,North,-999,0.0,0.0,76,0.00,,,-99.99,0,WeatherLink 5.7,2013-02-25 08:15:00,
2013-02-25 01:20:00,16.6,10.3,30.21,North,-999,0.0,0.0,76,0.00,,,-99.99,0,WeatherLink 5.7,2013-02-25 08:20:00,
2013-02-25 01:25:00,16.4,10.2,30.21,North,-999,0.0,0.0,76,0.00,,,-99.99,0,WeatherLink 5.7,2013-02-25 08:25:00,
2013-02-25 01:35:00,15.8,9.6,30.22,North,-999,0.0,0.0,76,0.00,,,-99.99,0,WeatherLink 5.7,2013-02-25 08:35:00,
2013-02-25 01:40:00,15.4,9.2,30.22,NE,45,0.0,2.0,76,0.00,,,-99.99,0,WeatherLink 5.7,2013-02-25 08:40:00,
2013-02-25 01:50:00,14.9,8.4,30.24,North,-999,0.0,0.0,75,0.00,,,-99.99,0,WeatherLink 5.7,2013-02-25 08:50:00,
2013-02-25 02:00:00,14.8,8.0,30.24,NE,45,1.0,3.0,74,0.00,,,-99.99,0,WeatherLink 5.7,2013-02-25 09:00:00,
2013-02-25 02:10:00,14.5,7.7,30.24,NE,45,1.0,3.0,74,0.00,,,-99.99,0,WeatherLink 5.7,2013-02-25 09:10:00,
2013-02-25 02:20:00,14.1,7.6,30.27,North,-999,0.0,0.0,75,0.00,,,-99.99,0,WeatherLink 5.7,2013-02-25 09:20:00,
2013-02-25 02:25:00,14.1,7.6,30.27,North,-999,0.0,0.0,75,0.00,,,-99.99,0,WeatherLink 5.7,2013-02-25 09:25:00,
2013-02-25 02:30:00,13.8,7.3,30.27,NE,45,0.0,2.0,75,0.00,,,-99.99,0,WeatherLink 5.7,2013-02-25 09:30:00,
2013-02-25 02:35:00,13.7,7.2,30.27,NE,45,0.0,2.0,75,0.00,,,-99.99,0,WeatherLink 5.7,2013-02-25 09:35:00,
2013-02-25 02:45:00,13.5,7.0,30.27,ENE,67,1.0,3.0,75,0.00,,,-99.99,0,WeatherLink 5.7,2013-02-25 09:45:00,
2013-02-25 02:50:00,13.3,6.6,30.27,ESE,112,0.0,1.0,74,0.00,,,-99.99,0,WeatherLink 5.7,2013-02-25 09:50:00,
2013-02-25 02:55:00,13.3,6.6,30.27,ESE,112,0.0,2.0,74,0.00,,,-99.99,0,WeatherLink 5.7,2013-02-25 09:55:00,
2013-02-25 03:00:00,13.2,6.2,30.27,ESE,112,1.0,3.0,73,0.00,,,-99.99,0,WeatherLink 5.7,2013-02-25 10:00:00,
2013-02-25 03:10:00,12.8,5.8,30.28,ESE,112,0.0,2.0,73,0.00,,,-99.99,0,WeatherLink 5.7,2013-02-25 10:10:00,
2013-02-25 03:15:00,12.6,5.6,30.28,ESE,112,1.0,3.0,73,0.00,,,-99.99,0,WeatherLink 5.7,2013-02-25 10:15:00,
2013-02-25 03:25:00,12.5,5.5,30.28,North,-999,0.0,0.0,73,0.00,,,-99.99,0,WeatherLink 5.7,2013-02-25 10:25:00,
2013-02-25 03:30:00,12.3,5.3,30.28,North,-999,0.0,0.0,73,0.00,,,-99.99,0,WeatherLink 5.7,2013-02-25 10:30:00,
2013-02-25 03:40:00,12.0,5.0,30.30,North,-999,0.0,0.0,73,0.00,,,-99.99,0,WeatherLink 5.7,2013-02-25 10:40:00,
2013-02-25 03:45:00,11.8,4.8,30.30,SE,135,0.0,2.0,73,0.00,,,-99.99,0,WeatherLink 5.7,2013-02-25 10:45:00,
2013-02-25 03:50:00,11.4,4.7,30.30,SE,135,0.0,2.0,74,0.00,,,-99.99,0,WeatherLink 5.7,2013-02-25 10:50:00,
2013-02-25 04:00:00,11.4,4.7,30.30,SE,135,0.0,2.0,74,0.00,,,-99.99,0,WeatherLink 5.7,2013-02-25 11:00:00,
2013-02-25 04:10:00,10.9,4.2,30.31,North,-999,0.0,0.0,74,0.00,,,-99.99,0,WeatherLink 5.7,2013-02-25 11:10:00,
2013-02-25 04:15:00,10.8,4.4,30.31,North,-999,0.0,0.0,75,0.00,,,-99.99,0,WeatherLink 5.7,2013-02-25 11:15:00,
2013-02-25 04:20:00,10.6,4.2,30.33,SSE,157,0.0,2.0,75,0.00,,,-99.99,0,WeatherLink 5.7,2013-02-25 11:20:00,
2013-02-25 04:25:00,10.6,4.2,30.33,SSE,157,0.0,2.0,75,0.00,,,-99.99,0,WeatherLink 5.7,2013-02-25 11:25:00,
2013-02-25 04:35:00,10.4,4.0,30.33,SE,135,1.0,3.0,75,0.00,,,-99.99,0,WeatherLink 5.7,2013-02-25 11:35:00,
2013-02-25 04:45:00,10.1,3.8,30.33,SE,135,1.0,2.0,75,0.00,,,-99.99,0,WeatherLink 5.7,2013-02-25 11:45:00,
2013-02-25 04:50:00,10.1,3.8,30.34,SE,135,0.0,2.0,75,0.00,,,-99.99,0,WeatherLink 5.7,2013-02-25 11:50:00,
2013-02-25 04:55:00,9.9,3.6,30.34,North,-999,0.0,0.0,75,0.00,,,-99.99,0,WeatherLink 5.7,2013-02-25 11:55:00,
2013-02-25 05:00:00,9.9,3.6,30.34,North,-999,0.0,0.0,75,0.00,,,-99.99,0,WeatherLink 5.7,2013-02-25 12:00:00,
2013-02-25 05:10:00,9.7,3.4,30.34,North,-999,0.0,0.0,75,0.00,,,-99.99,0,WeatherLink 5.7,2013-02-25 12:10:00,
2013-02-25 05:15:00,9.7,3.4,30.34,SE,135,0.0,2.0,75,0.00,,,-99.99,0,WeatherLink 5.7,2013-02-25 12:15:00,
2013-02-25 05:20:00,9.6,3.3,30.35,SE,135,1.0,2.0,75,0.00,,,-99.99,0,WeatherLink 5.7,2013-02-25 12:20:00,
2013-02-25 05:30:00,9.2,2.9,30.35,SE,135,0.0,2.0,75,0.00,,,-99.99,0,WeatherLink 5.7,2013-02-25 12:30:00,
2013-02-25 05:40:00,8.9,2.6,30.37,SE,135,1.0,3.0,75,0.00,,,-99.99,0,WeatherLink 5.7,2013-02-25 12:40:00,
2013-02-25 05:45:00,8.7,2.4,30.37,East,90,1.0,2.0,75,0.00,,,-99.99,0,WeatherLink 5.7,2013-02-25 12:45:00,
2013-02-25 05:50:00,8.7,2.4,30.38,East,90,1.0,3.0,75,0.00,,,-99.99,0,WeatherLink 5.7,2013-02-25 12:50:00,
2013-02-25 06:00:00,8.5,2.2,30.38,East,90,1.0,2.0,75,0.00,,,-99.99,0,WeatherLink 5.7,2013-02-25 13:00:00,
2013-02-25 06:10:00,8.3,2.0,30.39,East,90,1.0,3.0,75,0.00,,,-99.99,0,WeatherLink 5.7,2013-02-25 13:10:00,
2013-02-25 06:15:00,8.3,2.0,30.39,East,90,1.0,3.0,75,0.00,,,-99.99,0,WeatherLink 5.7,2013-02-25 13:15:00,
2013-02-25 06:25:00,8.1,1.8,30.40,East,90,0.0,2.0,75,0.00,,,-99.99,0,WeatherLink 5.7,2013-02-25 13:25:00,
2013-02-25 06:30:00,8.1,1.8,30.40,North,-999,0.0,0.0,75,0.00,,,-99.99,0,WeatherLink 5.7,2013-02-25 13:30:00,
2013-02-25 06:40:00,7.8,1.5,30.41,East,90,0.0,3.0,75,0.00,,,-99.99,0,WeatherLink 5.7,2013-02-25 13:40:00,
2013-02-25 06:50:00,7.6,1.3,30.41,East,90,0.0,2.0,75,0.00,,,-99.99,1,WeatherLink 5.7,2013-02-25 13:50:00,
2013-02-25 06:55:00,7.4,1.1,30.41,East,90,1.0,3.0,75,0.00,,,-99.99,5,WeatherLink 5.7,2013-02-25 13:55:00,
2013-02-25 07:00:00,7.3,1.0,30.41,East,90,2.0,4.0,75,0.00,,,-99.99,7,WeatherLink 5.7,2013-02-25 14:00:00,
2013-02-25 07:10:00,7.3,1.0,30.41,ESE,112,1.0,2.0,75,0.00,,,-99.99,12,WeatherLink 5.7,2013-02-25 14:10:00,
2013-02-25 07:20:00,7.3,1.0,30.44,ESE,112,1.0,3.0,75,0.00,,,-99.99,21,WeatherLink 5.7,2013-02-25 14:20:00,
2013-02-25 07:25:00,7.3,1.0,30.44,East,90,2.0,4.0,75,0.00,,,-99.99,26,WeatherLink 5.7,2013-02-25 14:25:00,
2013-02-25 07:35:00,7.4,1.1,30.44,ESE,112,2.0,4.0,75,0.00,,,-99.99,30,WeatherLink 5.7,2013-02-25 14:35:00,
2013-02-25 07:40:00,7.4,1.1,30.44,SE,135,1.0,4.0,75,0.00,,,-99.99,30,WeatherLink 5.7,2013-02-25 14:40:00,
2013-02-25 07:50:00,8.0,1.7,30.42,SE,135,2.0,5.0,75,0.00,,,-99.99,71,WeatherLink 5.7,2013-02-25 14:50:00,
2013-02-25 07:55:00,8.5,2.2,30.42,ESE,112,2.0,4.0,75,0.00,,,-99.99,139,WeatherLink 5.7,2013-02-25 14:55:00,
2013-02-25 08:00:00,9.2,2.9,30.42,East,90,2.0,4.0,75,0.00,,,-99.99,169,WeatherLink 5.7,2013-02-25 15:00:00,
2013-02-25 08:10:00,10.4,3.5,30.41,East,90,3.0,6.0,73,0.00,,,-99.99,290,WeatherLink 5.7,2013-02-25 15:10:00,
2013-02-25 08:15:00,10.8,3.5,30.41,ESE,112,3.0,5.0,72,0.00,,,-99.99,312,WeatherLink 5.7,2013-02-25 15:15:00,
2013-02-25 08:25:00,11.4,3.5,30.40,East,90,3.0,4.0,70,0.00,,,-99.99,341,WeatherLink 5.7,2013-02-25 15:25:00,
2013-02-25 08:30:00,11.4,2.9,30.40,ESE,112,3.0,5.0,68,0.00,,,-99.99,360,WeatherLink 5.7,2013-02-25 15:30:00,
2013-02-25 08:35:00,11.8,2.9,30.41,East,90,3.0,5.0,67,0.00,,,-99.99,370,WeatherLink 5.7,2013-02-25 15:35:00,
2013-02-25 08:45:00,13.0,3.8,30.41,East,90,2.0,5.0,66,0.00,,,-99.99,412,WeatherLink 5.7,2013-02-25 15:45:00,
2013-02-25 08:55:00,13.0,3.8,30.39,East,90,5.0,7.0,66,0.00,,,-99.99,415,WeatherLink 5.7,2013-02-25 15:55:00,
2013-02-25 09:00:00,13.5,4.2,30.39,East,90,3.0,6.0,66,0.00,,,-99.99,410,WeatherLink 5.7,2013-02-25 16:00:00,
2013-02-25 09:10:00,14.9,4.9,30.38,ESE,112,2.0,4.0,64,0.00,,,-99.99,450,WeatherLink 5.7,2013-02-25 16:10:00,
2013-02-25 09:15:00,15.4,5.0,30.38,ESE,112,3.0,5.0,63,0.00,,,-99.99,462,WeatherLink 5.7,2013-02-25 16:15:00,
2013-02-25 09:25:00,16.7,5.6,30.37,ESE,112,2.0,5.0,61,0.00,,,-99.99,492,WeatherLink 5.7,2013-02-25 16:25:00,
2013-02-25 09:30:00,17.0,5.1,30.37,East,90,3.0,6.0,59,0.00,,,-99.99,499,WeatherLink 5.7,2013-02-25 16:30:00,
2013-02-25 09:40:00,17.5,5.6,30.37,East,90,2.0,5.0,59,0.00,,,-99.99,523,WeatherLink 5.7,2013-02-25 16:40:00,
2013-02-25 09:45:00,17.5,5.6,30.37,East,90,3.0,5.0,59,0.00,,,-99.99,543,WeatherLink 5.7,2013-02-25 16:45:00,
2013-02-25 09:55:00,19.4,6.6,30.34,ESE,112,1.0,5.0,57,0.00,,,-99.99,569,WeatherLink 5.7,2013-02-25 16:55:00,
2013-02-25 10:00:00,19.6,6.4,30.34,ESE,112,1.0,3.0,56,0.00,,,-99.99,583,WeatherLink 5.7,2013-02-25 17:00:00,
2013-02-25 10:10:00,20.5,7.3,30.33,ESE,112,1.0,4.0,56,0.00,,,-99.99,612,WeatherLink 5.7,2013-02-25 17:10:00,
2013-02-25 10:15:00,21.0,7.3,30.33,ESE,112,2.0,5.0,55,0.00,,,-99.99,625,WeatherLink 5.7,2013-02-25 17:15:00,
2013-02-25 10:25:00,21.5,7.4,30.31,East,90,2.0,5.0,54,0.00,,,-99.99,647,WeatherLink 5.7,2013-02-25 17:25:00,
2013-02-25 10:30:00,21.9,7.8,30.31,ESE,112,1.0,4.0,54,0.00,,,-99.99,640,WeatherLink 5.7,2013-02-25 17:30:00,
2013-02-25 10:40:00,23.0,8.8,30.31,East,90,1.0,4.0,54,0.00,,,-99.99,673,WeatherLink 5.7,2013-02-25 17:40:00,
2013-02-25 10:45:00,23.3,8.7,30.31,East,90,1.0,3.0,53,0.00,,,-99.99,686,WeatherLink 5.7,2013-02-25 17:45:00,
2013-02-25 10:55:00,25.0,9.4,30.27,SE,135,0.0,3.0,51,0.00,,,-99.99,706,WeatherLink 5.7,2013-02-25 17:55:00,
2013-02-25 11:00:00,25.0,9.0,30.27,SE,135,0.0,4.0,50,0.00,,,-99.99,715,WeatherLink 5.7,2013-02-25 18:00:00,
2013-02-25 11:10:00,25.8,9.2,30.27,SSE,157,0.0,5.0,49,0.00,,,-99.99,730,WeatherLink 5.7,2013-02-25 18:10:00,
2013-02-25 11:15:00,25.4,9.3,30.27,ESE,112,1.0,4.0,50,0.00,,,-99.99,738,WeatherLink 5.7,2013-02-25 18:15:00,
2013-02-25 11:20:00,26.4,9.3,30.25,WSW,247,0.0,4.0,48,0.00,,,-99.99,745,WeatherLink 5.7,2013-02-25 18:20:00,
2013-02-25 11:30:00,27.3,9.7,30.25,WSW,247,0.0,1.0,47,0.00,,,-99.99,755,WeatherLink 5.7,2013-02-25 18:30:00,
2013-02-25 11:35:00,27.2,9.6,30.24,SE,135,1.0,5.0,47,0.00,,,-99.99,761,WeatherLink 5.7,2013-02-25 18:35:00,
2013-02-25 11:45:00,28.4,10.7,30.24,SE,135,1.0,3.0,47,0.00,,,-99.99,770,WeatherLink 5.7,2013-02-25 18:45:00,
2013-02-25 11:50:00,29.2,10.0,30.21,ESE,112,0.0,4.0,44,0.00,,,-99.99,775,WeatherLink 5.7,2013-02-25 18:50:00,
2013-02-25 11:55:00,28.8,9.6,30.21,SE,135,1.0,4.0,44,0.00,,,-99.99,779,WeatherLink 5.7,2013-02-25 18:55:00,
2013-02-25 12:00:00,29.4,9.6,30.21,SSE,157,1.0,5.0,43,0.00,,,-99.99,781,WeatherLink 5.7,2013-02-25 19:00:00,
2013-02-25 12:10:00,29.7,10.4,30.20,SE,135,1.0,6.0,44,0.00,,,-99.99,787,WeatherLink 5.7,2013-02-25 19:10:00,
2013-02-25 12:15:00,30.9,10.5,30.20,WSW,247,0.0,4.0,42,0.00,,,-99.99,787,WeatherLink 5.7,2013-02-25 19:15:00,
2013-02-25 12:25:00,31.0,10.0,30.19,SSW,202,1.0,4.0,41,0.00,,,-99.99,788,WeatherLink 5.7,2013-02-25 19:25:00,
2013-02-25 12:30:00,31.5,10.5,30.19,West,270,0.0,3.0,41,0.00,,,-99.99,789,WeatherLink 5.7,2013-02-25 19:30:00,
2013-02-25 12:40:00,31.8,10.2,30.17,SW,225,0.0,3.0,40,0.00,,,-99.99,786,WeatherLink 5.7,2013-02-25 19:40:00,
2013-02-25 12:45:00,31.9,11.4,30.17,West,270,0.0,3.0,42,0.00,,,-99.99,786,WeatherLink 5.7,2013-02-25 19:45:00,
2013-02-25 12:55:00,31.5,10.5,30.17,NW,315,2.0,5.0,41,0.00,,,-99.99,779,WeatherLink 5.7,2013-02-25 19:55:00,
2013-02-25 13:00:00,31.5,10.5,30.17,NW,315,3.0,7.0,41,0.00,,,-99.99,775,WeatherLink 5.7,2013-02-25 20:00:00,
2013-02-25 13:10:00,31.8,10.7,30.15,NNW,337,3.0,6.0,41,0.00,,,-99.99,767,WeatherLink 5.7,2013-02-25 20:10:00,
2013-02-25 13:15:00,32.1,11.0,30.15,NW,315,4.0,6.0,41,0.00,,,-99.99,763,WeatherLink 5.7,2013-02-25 20:15:00,
2013-02-25 13:25:00,32.1,11.0,30.16,NW,315,3.0,10.0,41,0.00,,,-99.99,755,WeatherLink 5.7,2013-02-25 20:25:00,
2013-02-25 13:30:00,32.4,11.3,30.16,NNW,337,6.0,10.0,41,0.00,,,-99.99,749,WeatherLink 5.7,2013-02-25 20:30:00,
2013-02-25 13:35:00,32.5,11.4,30.15,North,0,5.0,11.0,41,0.00,,,-99.99,743,WeatherLink 5.7,2013-02-25 20:35:00,
2013-02-25 13:45:00,33.2,12.0,30.15,NNW,337,2.0,8.0,41,0.00,,,-99.99,728,WeatherLink 5.7,2013-02-25 20:45:00,
2013-02-25 13:50:00,34.1,12.8,30.13,NNW,337,1.0,4.0,41,0.00,,,-99.99,722,WeatherLink 5.7,2013-02-25 20:50:00,
2013-02-25 14:00:00,34.4,12.5,30.13,NNW,337,2.0,6.0,40,0.00,,,-99.99,706,WeatherLink 5.7,2013-02-25 21:00:00,
2013-02-25 14:10:00,34.7,13.4,30.11,NNW,337,1.0,5.0,41,0.00,,,-99.99,690,WeatherLink 5.7,2013-02-25 21:10:00,
2013-02-25 14:15:00,35.2,12.1,30.11,NNW,337,1.0,5.0,38,0.00,,,-99.99,679,WeatherLink 5.7,2013-02-25 21:15:00,
2013-02-25 14:25:00,35.7,12.5,30.11,North,0,0.0,4.0,38,0.00,,,-99.99,659,WeatherLink 5.7,2013-02-25 21:25:00,
2013-02-25 14:30:00,35.9,12.7,30.11,North,0,0.0,5.0,38,0.00,,,-99.99,649,WeatherLink 5.7,2013-02-25 21:30:00,
2013-02-25 14:40:00,36.6,12.7,30.11,North,0,1.0,4.0,37,0.00,,,-99.99,628,WeatherLink 5.7,2013-02-25 21:40:00,
2013-02-25 14:45:00,36.2,10.5,30.11,North,0,1.0,6.0,34,0.00,,,-99.99,617,WeatherLink 5.7,2013-02-25 21:45:00,
2013-02-25 14:55:00,36.3,9.9,30.10,North,0,0.0,2.0,33,0.00,,,-99.99,591,WeatherLink 5.7,2013-02-25 21:55:00,
2013-02-25 15:00:00,36.9,11.1,30.10,NW,315,0.0,7.0,34,0.00,,,-99.99,580,WeatherLink 5.7,2013-02-25 22:00:00,
2013-02-25 15:10:00,36.9,9.7,30.08,North,0,1.0,5.0,32,0.00,,,-99.99,555,WeatherLink 5.7,2013-02-25 22:10:00,
2013-02-25 15:15:00,36.0,8.9,30.08,NNW,337,3.0,9.0,32,0.00,,,-99.99,542,WeatherLink 5.7,2013-02-25 22:15:00,
2013-02-25 15:25:00,36.2,8.4,30.10,NNW,337,2.0,14.0,31,0.00,,,-99.99,511,WeatherLink 5.7,2013-02-25 22:25:00,
2013-02-25 15:30:00,35.7,8.0,30.10,NNW,337,2.0,14.0,31,0.00,,,-99.99,495,WeatherLink 5.7,2013-02-25 22:30:00,
2013-02-25 15:40:00,35.7,7.3,30.10,NNW,337,2.0,13.0,30,0.00,,,-99.99,467,WeatherLink 5.7,2013-02-25 22:40:00,
2013-02-25 15:45:00,35.9,7.4,30.10,North,0,2.0,10.0,30,0.00,,,-99.99,452,WeatherLink 5.7,2013-02-25 22:45:00,
2013-02-25 15:50:00,36.2,6.9,30.10,North,0,1.0,7.0,29,0.00,,,-99.99,434,WeatherLink 5.7,2013-02-25 22:50:00,
2013-02-25 16:00:00,35.3,6.9,30.10,NNW,337,3.0,10.0,30,0.00,,,-99.99,308,WeatherLink 5.7,2013-02-25 23:00:00,
2013-02-25 16:10:00,35.6,7.2,30.10,WNW,292,2.0,6.0,30,0.00,,,-99.99,181,WeatherLink 5.7,2013-02-25 23:10:00,
2013-02-25 16:20:00,35.2,6.1,30.10,ESE,112,1.0,8.0,29,0.00,,,-99.99,164,WeatherLink 5.7,2013-02-25 23:20:00,
2013-02-25 16:25:00,35.2,6.1,30.10,East,90,0.0,4.0,29,0.00,,,-99.99,164,WeatherLink 5.7,2013-02-25 23:25:00,
2013-02-25 16:35:00,35.0,5.9,30.10,NW,315,2.0,10.0,29,0.00,,,-99.99,165,WeatherLink 5.7,2013-02-25 23:35:00,
2013-02-25 16:40:00,34.7,6.4,30.10,NNW,337,4.0,10.0,30,0.00,,,-99.99,178,WeatherLink 5.7,2013-02-25 23:40:00,
2013-02-25 16:50:00,34.1,5.1,30.10,NNW,337,5.0,10.0,29,0.00,,,-99.99,80,WeatherLink 5.7,2013-02-25 23:50:00,
2013-02-25 16:55:00,33.8,6.3,30.10,NNW,337,2.0,8.0,31,0.00,,,-99.99,22,WeatherLink 5.7,2013-02-25 23:55:00,
2013-02-25 17:00:00,33.7,6.2,30.10,NW,315,2.0,5.0,31,0.00,,,-99.99,21,WeatherLink 5.7,2013-02-26 00:00:00,
2013-02-25 17:10:00,33.1,8.4,30.10,NW,315,1.0,4.0,35,0.00,,,-99.99,21,WeatherLink 5.7,2013-02-26 00:10:00,
2013-02-25 17:20:00,32.8,7.5,30.11,NNW,337,1.0,5.0,34,0.00,,,-99.99,21,WeatherLink 5.7,2013-02-26 00:20:00,
2013-02-25 17:25:00,32.8,7.5,30.11,NNW,337,3.0,9.0,34,0.00,,,-99.99,19,WeatherLink 5.7,2013-02-26 00:25:00,
2013-02-25 17:30:00,32.6,7.3,30.11,NNW,337,2.0,5.0,34,0.00,,,-99.99,18,WeatherLink 5.7,2013-02-26 00:30:00,
2013-02-25 17:40:00,32.2,6.9,30.11,NW,315,0.0,1.0,34,0.00,,,-99.99,14,WeatherLink 5.7,2013-02-26 00:40:00,
2013-02-25 17:45:00,32.1,7.5,30.11,North,-999,0.0,0.0,35,0.00,,,-99.99,12,WeatherLink 5.7,2013-02-26 00:45:00,
2013-02-25 17:55:00,31.8,7.8,30.11,NW,315,0.0,3.0,36,0.00,,,-99.99,6,WeatherLink 5.7,2013-02-26 00:55:00,
2013-02-25 18:00:00,31.6,7.7,30.11,West,270,0.0,1.0,36,0.00,,,-99.99,3,WeatherLink 5.7,2013-02-26 01:00:00,
2013-02-25 18:10:00,31.0,8.3,30.12,West,270,0.0,2.0,38,0.00,,,-99.99,0,WeatherLink 5.7,2013-02-26 01:10:00,
2013-02-25 18:15:00,30.7,8.6,30.12,West,270,0.0,2.0,39,0.00,,,-99.99,0,WeatherLink 5.7,2013-02-26 01:15:00,
2013-02-25 18:25:00,30.3,8.8,30.13,North,-999,0.0,0.0,40,0.00,,,-99.99,0,WeatherLink 5.7,2013-02-26 01:25:00,
2013-02-25 18:30:00,30.0,8.6,30.13,West,270,0.0,1.0,40,0.00,,,-99.99,0,WeatherLink 5.7,2013-02-26 01:30:00,
2013-02-25 18:35:00,29.8,8.4,30.15,North,-999,0.0,0.0,40,0.00,,,-99.99,0,WeatherLink 5.7,2013-02-26 01:35:00,
2013-02-25 18:45:00,29.4,9.1,30.15,North,-999,0.0,0.0,42,0.00,,,-99.99,0,WeatherLink 5.7,2013-02-26 01:45:00,
2013-02-25 18:50:00,29.2,8.9,30.14,West,270,0.0,1.0,42,0.00,,,-99.99,0,WeatherLink 5.7,2013-02-26 01:50:00,
2013-02-25 18:55:00,29.0,9.3,30.14,South,180,0.0,3.0,43,0.00,,,-99.99,0,WeatherLink 5.7,2013-02-26 01:55:00,
2013-02-25 19:00:00,28.7,9.5,30.14,ESE,112,1.0,3.0,44,0.00,,,-99.99,0,WeatherLink 5.7,2013-02-26 02:00:00,
2013-02-25 19:10:00,28.2,9.0,30.15,South,180,0.0,2.0,44,0.00,,,-99.99,0,WeatherLink 5.7,2013-02-26 02:10:00,
2013-02-25 19:15:00,28.1,9.5,30.15,South,180,0.0,1.0,45,0.00,,,-99.99,0,WeatherLink 5.7,2013-02-26 02:15:00,
2013-02-25 19:25:00,27.5,9.4,30.13,SE,135,0.0,3.0,46,0.00,,,-99.99,0,WeatherLink 5.7,2013-02-26 02:25:00,
2013-02-25 19:35:00,26.7,9.6,30.14,North,-999,0.0,0.0,48,0.00,,,-99.99,0,WeatherLink 5.7,2013-02-26 02:35:00,
2013-02-25 19:40:00,26.3,9.7,30.14,North,-999,0.0,0.0,49,0.00,,,-99.99,0,WeatherLink 5.7,2013-02-26 02:40:00,
2013-02-25 19:50:00,25.8,9.7,30.14,SE,135,0.0,3.0,50,0.00,,,-99.99,0,WeatherLink 5.7,2013-02-26 02:50:00,
2013-02-25 19:55:00,25.5,9.4,30.14,SE,135,0.0,2.0,50,0.00,,,-99.99,0,WeatherLink 5.7,2013-02-26 02:55:00,
2013-02-25 20:00:00,25.4,9.8,30.14,SE,135,0.0,2.0,51,0.00,,,-99.99,0,WeatherLink 5.7,2013-02-26 03:00:00,
2013-02-25 20:10:00,25.0,9.8,30.17,SE,135,0.0,2.0,52,0.00,,,-99.99,0,WeatherLink 5.7,2013-02-26 03:10:00,
2013-02-25 20:15:00,24.8,10.1,30.17,SE,135,0.0,2.0,53,0.00,,,-99.99,0,WeatherLink 5.7,2013-02-26 03:15:00,
2013-02-25 20:20:00,24.8,10.1,30.13,North,-999,0.0,0.0,53,0.00,,,-99.99,0,WeatherLink 5.7,2013-02-26 03:20:00,
2013-02-25 20:25:00,24.7,10.0,30.13,North,-999,0.0,0.0,53,0.00,,,-99.99,0,WeatherLink 5.7,2013-02-26 03:25:00,
2013-02-25 20:35:00,24.4,10.1,30.12,SE,135,0.0,2.0,54,0.00,,,-99.99,0,WeatherLink 5.7,2013-02-26 03:35:00,
2013-02-25 20:40:00,24.4,10.1,30.12,ESE,112,2.0,4.0,54,0.00,,,-99.99,0,WeatherLink 5.7,2013-02-26 03:40:00,
2013-02-25 20:50:00,24.2,9.9,30.12,SE,135,1.0,2.0,54,0.00,,,-99.99,0,WeatherLink 5.7,2013-02-26 03:50:00,
2013-02-25 20:55:00,23.9,9.6,30.12,SE,135,0.0,3.0,54,0.00,,,-99.99,0,WeatherLink 5.7,2013-02-26 03:55:00,
2013-02-25 21:00:00,23.8,10.0,30.12,North,-999,0.0,0.0,55,0.00,,,-99.99,0,WeatherLink 5.7,2013-02-26 04:00:00,
2013-02-25 21:10:00,23.5,10.1,30.12,SE,135,0.0,2.0,56,0.00,,,-99.99,0,WeatherLink 5.7,2013-02-26 04:10:00,
2013-02-25 21:20:00,23.3,9.9,30.08,SSE,157,2.0,4.0,56,0.00,,,-99.99,0,WeatherLink 5.7,2013-02-26 04:20:00,
2013-02-25 21:25:00,23.2,9.8,30.08,SE,135,0.0,3.0,56,0.00,,,-99.99,0,WeatherLink 5.7,2013-02-26 04:25:00,
2013-02-25 21:35:00,23.3,10.3,30.09,SE,135,1.0,3.0,57,0.00,,,-99.99,0,WeatherLink 5.7,2013-02-26 04:35:00,
2013-02-25 21:40:00,23.5,10.5,30.09,East,90,1.0,3.0,57,0.00,,,-99.99,0,WeatherLink 5.7,2013-02-26 04:40:00,
2013-02-25 21:50:00,23.3,10.3,30.09,ESE,112,0.0,2.0,57,0.00,,,-99.99,0,WeatherLink 5.7,2013-02-26 04:50:00,
2013-02-25 21:55:00,23.3,10.3,30.09,North,-999,0.0,0.0,57,0.00,,,-99.99,0,WeatherLink 5.7,2013-02-26 04:55:00,
2013-02-25 22:00:00,23.2,10.2,30.09,North,-999,0.0,0.0,57,0.00,,,-99.99,0,WeatherLink 5.7,2013-02-26 05:00:00,
2013-02-25 22:10:00,23.5,10.5,30.09,ESE,112,0.0,1.0,57,0.00,,,-99.99,0,WeatherLink 5.7,2013-02-26 05:10:00,
2013-02-25 22:15:00,23.5,10.5,30.09,North,-999,0.0,0.0,57,0.00,,,-99.99,0,WeatherLink 5.7,2013-02-26 05:15:00,
2013-02-25 22:20:00,23.6,10.6,30.05,WSW,247,0.0,1.0,57,0.00,,,-99.99,0,WeatherLink 5.7,2013-02-26 05:20:00,
2013-02-25 22:25:00,23.5,10.5,30.05,WSW,247,0.0,1.0,57,0.00,,,-99.99,0,WeatherLink 5.7,2013-02-26 05:25:00,
2013-02-25 22:35:00,23.3,10.3,30.04,North,-999,0.0,0.0,57,0.00,,,-99.99,0,WeatherLink 5.7,2013-02-26 05:35:00,
2013-02-25 22:40:00,23.2,10.6,30.04,North,-999,0.0,0.0,58,0.00,,,-99.99,0,WeatherLink 5.7,2013-02-26 05:40:00,
2013-02-25 22:45:00,23.0,10.4,30.04,ENE,67,0.0,2.0,58,0.00,,,-99.99,0,WeatherLink 5.7,2013-02-26 05:45:00,
2013-02-25 22:55:00,22.7,10.9,30.04,ENE,67,1.0,3.0,60,0.00,,,-99.99,0,WeatherLink 5.7,2013-02-26 05:55:00,
2013-02-25 23:00:00,22.4,10.6,30.04,North,-999,0.0,0.0,60,0.00,,,-99.99,0,WeatherLink 5.7,2013-02-26 06:00:00,
2013-02-25 23:10:00,22.2,10.8,30.05,North,-999,0.0,0.0,61,0.00,,,-99.99,0,WeatherLink 5.7,2013-02-26 06:10:00,
2013-02-25 23:15:00,21.9,10.5,30.05,North,-999,0.0,0.0,61,0.00,,,-99.99,0,WeatherLink 5.7,2013-02-26 06:15:00,
2013-02-25 23:25:00,21.8,10.8,30.03,North,-999,0.0,0.0,62,0.00,,,-99.99,0,WeatherLink 5.7,2013-02-26 06:25:00,
2013-02-25 23:30:00,21.6,10.9,30.03,North,-999,0.0,0.0,63,0.00,,,-99.99,0,WeatherLink 5.7,2013-02-26 06:30:00,
2013-02-25 23:35:00,21.5,10.5,30.02,North,-999,0.0,0.0,62,0.00,,,-99.99,0,WeatherLink 5.7,2013-02-26 06:35:00,
2013-02-25 23:45:00,21.3,10.3,30.02,North,-999,0.0,0.0,62,0.00,,,-99.99,0,WeatherLink 5.7,2013-02-26 06:45:00,
2013-02-25 23:55:00,21.0,9.6,30.02,ESE,112,1.0,3.0,61,0.00,,,-99.99,0,WeatherLink 5.7,2013-02-26 06:55:00,